Weather Roundup
Issued by NWS Chicago, IL

Home | Current Version | Previous Version | Graphics & Text | Print | Product List | Glossary On
Versions: 1 2 3 4 5 6 7 8 9 10 11 12 13 14 15 16 17 18 19 20 21 22 23 24 25 26 27 28 29 30 31 32 33 34 35 36 37 38 39 40 41 42 43 44 45 46 47 48 49 50
000
NZUS59 KLOT 010321
HRRLOT

CHICAGO AREA WEATHER ROUNDUP
NATIONAL WEATHER SERVICE CHICAGO/ROMEOVILLE IL
1000 PM CDT MON AUG 31 2015

NOTE: "FAIR" INDICATES FEW OR NO CLOUDS BELOW 12,000 FEET WITH NO
SIGNIFICANT WEATHER AND/OR OBSTRUCTIONS TO VISIBILITY.

* THESE STATIONS ARE NOT UNDER NWS QUALITY CONTROL. THEY ALSO MAY NOT
  REPORT WEATHER SUCH AS PRECIPITATION OR FOG.

ILZ005-006-012>014-019>023-010400-
NORTHEAST ILLINOIS

CITY           SKY/WX    TMP DP  RH WIND       PRES   REMARKS
OHARE          CLEAR     73  67  81 SE6       30.04R
MIDWAY         CLEAR     78  68  71 CALM      30.04R HX  80
AURORA         CLEAR     71  67  87 CALM      30.05R FOG
LANSING*       CLEAR     73  69  87 CALM      30.05R
JOLIET*        CLEAR     73  71  93 CALM      30.04S
WAUKEGAN       CLEAR     68  66  93 SE3       30.04R
DUPAGE AIRPORT CLEAR     70  67  90 CALM      30.04R FOG
WHEELING       CLEAR     71  66  84 CALM      30.05R
KANKAKEE*      CLEAR     72  70  93 S5        30.06S
MORRIS*        CLEAR     74  70  87 S3        30.03S
LEWIS AIRPORT* CLEAR     72  68  86 S6        30.04S
NORTHERLY IS     N/A     70  67  90 CALM        N/A
$$

WIZ051-052-058>065-066-070>072-010400-
SOUTHEAST WISCONSIN

CITY           SKY/WX    TMP DP  RH WIND       PRES   REMARKS
MILWAUKEE      PTCLDY    70  65  84 S6        30.03S
KENOSHA*       CLEAR     68  64  87 SE3       30.04S
RACINE*        CLEAR     69  65  86 S6        30.05S
BURLINGTON     FOG       65  64  98 CALM      30.04R VSB 1/4
WAUKESHA       CLEAR     68  66  94 S6        30.05R
WEST BEND      CLEAR     64  63  94 CALM      30.03S FOG
$$

INZ001>003-010>013-019-020-010400-
NORTHWEST INDIANA

CITY           SKY/WX    TMP DP  RH WIND       PRES   REMARKS
GARY*          CLEAR     70  66  88 CALM      30.05  FOG
MICHIGAN CITY* NOT AVBL
RENSSELAER*    NOT AVBL
VALPARAISO     CLEAR     72  69  90 NE3       30.07R FOG
$$

LMZ740>746-010400-
SOUTHERN LAKE MICHIGAN

STATION/POSITION TIME  SKY/WX   TEMP WIND        PRES    VSBY
                                AIR  DIR/SP/G
                 (UTC)          (F)  (DEG/KT/KT) (MB)    (MI)
HARRISON CRIB    0300            72  180/  5/  5   N/A
BURNHAM HARBOR   0300            70     CALM       N/A
CALUMET HARBOR   0200            74  110/  3/  5   N/A
BURNS HARBOR     0200            79  150/  4/  5 1017.6R
MICHIGAN CITY    0300            75  120/  5/  6   N/A
$$

ABBREVIATIONS USED IN REMARKS
   TC - TEMPERATURE IN CELSIUS
  WCI - WIND CHILL INDEX
   HX - HEAT INDEX
  VSB - VISIBILITY
$$


USA.gov is the U.S. government's official web portal to all federal, state and local government web resources and services.